Regional Weather Roundup
Issued by NWS

Home | Current Version | Previous Version | Text Only | Print | Product List | Glossary Off
Versions: 1 2 3 4 5 6 7 8 9 10 11 12 13 14 15 16 17 18 19 20 21 22 23 24 25 26 27 28 29 30 31 32 33 34 35 36 37 38 39 40 41 42 43 44 45 46 47 48 49 50

000
ASUS43 KLOT 251908
RWRIL

ILLINOIS REGIONAL WEATHER ROUNDUP
NATIONAL WEATHER SERVICE CHICAGO/ROMEOVILLE IL
200 PM CDT MON MAY 25 2015

NOTE: "FAIR" INDICATES FEW OR NO CLOUDS BELOW 12,000 FEET WITH NO
SIGNIFICANT WEATHER AND/OR OBSTRUCTIONS TO VISIBILITY.

* THESE STATIONS ARE NOT UNDER NWS QUALITY CONTROL. THEY ALSO MAY NOT
  REPORT WEATHER SUCH AS PRECIPITATION OR FOG.

ILZ001-002-007-009-015-016-024-252000-
NORTHWEST ILLINOIS

CITY           SKY/WX    TMP DP  RH WIND       PRES   REMARKS
MOLINE         MOSUNNY   77  62  59 SW16G24   29.88S
STERLING*      PTSUNNY   77  64  65 W14G23    29.89S
SAVANNA*       MOSUNNY   78  62  58 SW15      29.86S
$$

ILZ003-004-008-010-011-017-018-252000-
NORTH CENTRAL ILLINOIS

CITY           SKY/WX    TMP DP  RH WIND       PRES   REMARKS
ROCKFORD       PTSUNNY   76  62  62 SW15G23   29.88F
FREEPORT*      PTSUNNY   74  64  69 SW18G26   29.89S
ROCHELLE*      PTSUNNY   74  65  71 SW21G28   29.90S
DE KALB*       PTSUNNY   73  62  67 SW15G22   29.90F
PERU*          PTSUNNY   78  62  58 SW16G22   29.92S HX  80
$$

ILZ005-006-012>014-019>023-252000-
NORTHEAST ILLINOIS

CITY           SKY/WX    TMP DP  RH WIND       PRES   REMARKS
CHICAGO-OHARE  PTSUNNY   74  64  71 W20G25    29.89S
CHICAGO-MIDWAY PTSUNNY   76  63  64 SW16G29   29.90S
AURORA         PTSUNNY   77  62  59 W17       29.91S
LANSING*       PTSUNNY   76  60  56 SW22G29   29.93S
JOLIET*        PTSUNNY   77  65  65 SW14G23   29.92F
WAUKEGAN       CLOUDY    73  61  65 SW18G28   29.86R
DUPAGE AIRPORT PTSUNNY   75  62  64 SW21G26   29.90S
KANKAKEE*      PTSUNNY   78  62  58 SW18G25   29.95S
WHEELING       PTSUNNY   75  61  61 SW17G26   29.89F
MORRIS*        PTSUNNY   76  64  65 SW17G23   29.91S
ROMEOVILLE*    CLOUDY    74  63  67 SW18G26   29.92R
NORTHERLY ISL    N/A     73  61  65 S9          N/A
$$

LMZ740>746-252000-
SOUTHERN LAKE MICHIGAN

STATION/POSITION SKY/WX   TEMP    WIND        PRES    VSBY  WAVE
                          AIR SEA DIR/SP/G                  HT/PER
                          (F)     (DEG/KT/KT) (MB)    (MI)  (FT/S)
SOUTHERN BUOY              49 38  200/ 16/ 17 1011.6F         2/ 4
HARRISON CRIB              69     220/ 18/ 22   N/A
BURNHAM HARBOR             73     260/ 13/ 20   N/A
CALUMET HARBOR             69     210/  8/ 16   N/A
BURNS HARBOR               75     220/ 23/ 25 1012.9S
MICHIGAN CITY              72     210/ 27/ 32   N/A
MICHIGAN CITY 6N           58 52  280/  8/ 12   N/A           3/ 4
ST. JOSEPH                 59 54  280/ 14/ 16   N/A           2/ 3
$$

ILZ025>027-034>036-040-047-049-050-058-095>099-252000-
WEST-CENTRAL ILLINOIS

CITY           SKY/WX    TMP DP  RH WIND       PRES   REMARKS
QUINCY         SUNNY     77  62  59 S16G22    29.94S
GALESBURG*     MOSUNNY   76  64  66 S18       29.92S
MACOMB*        MOSUNNY   76  63  63 SW13G22   29.95S
JACKSONVILLE*  SUNNY     82  60  48 S10       29.96S HX  82
PITTSFIELD*    SUNNY     78  63  60 S10G18    29.96F HX  80
$$

ILZ028>032-037-038-041>044-048-051>054-059>061-252000-
CENTRAL ILLINOIS

CITY           SKY/WX    TMP DP  RH WIND       PRES   REMARKS
PONTIAC        PTSUNNY   78  64  61 SW14G23   29.96S HX  80
BLOOMINGTON    PTSUNNY   76  63  64 S16       29.99S
DECATUR        PTSUNNY   78  62  57 S17G25    29.99F HX  80
PEORIA         MOSUNNY   79  62  56 SW13      29.94F HX  80
LACON*         MOSUNNY   76  62  62 SW13G18   29.92F
LINCOLN*       PTSUNNY   78  62  56 S10G17    29.94F HX  80
SPRINGFIELD    PTSUNNY   81  62  52 S15G22    29.97F HX  82
TAYLORVILLE    PTSUNNY   77  63  61 SW13      30.00F
$$

ILZ033-039-045-046-055>057-062-063-252000-
EAST-CENTRAL ILLINOIS

CITY           SKY/WX    TMP DP  RH WIND       PRES   REMARKS
CHAMPAIGN      PTSUNNY   83  57  41 SW20G28   30.00S HX  82
DANVILLE*      MOSUNNY   82  59  46 SW18G35   29.96F HX  82
RANTOUL*       PTSUNNY   81  59  46 SW17G30   29.98F HX  82
MATTOON        PTSUNNY   78  65  63 S12       30.00F HX  80
PARIS*         PTSUNNY   80  64  58 S18G25    30.02F HX  82
$$

ILZ079-100>102-252000-
SOUTHWEST ILLINOIS

CITY           SKY/WX    TMP DP  RH WIND       PRES   REMARKS
BELLEVILLE     PTSUNNY   81  69  65 S16       29.98F HX  84
CAHOKIA*       PTSUNNY   83  64  52 S8        29.98F HX  84
SPARTA*        CLOUDY    78  68  72 SE9       30.03S HX  80
$$

ILZ064>066-069>071-074>076-080>082-084>086-088>090-092>094-252000-
SOUTH-CENTRAL ILLINOIS

CITY           SKY/WX    TMP DP  RH WIND       PRES   REMARKS
CARBONDALE     CLOUDY    76  67  73 S14       30.05S
CAIRO*         LGT RAIN  74  69  83 S8        30.07S
EFFINGHAM*     PTSUNNY   80  62  55 S12       30.04F HX  81
MARION         CLOUDY    77  70  78 S12       30.07S
MT. VERNON     CLOUDY    79  66  65 S12       30.06S HX  81
CENTRALIA*     CLOUDY    81  66  59 S10G16    30.03S HX  83
SALEM*         CLOUDY    80  67  64 S12G18    30.03F HX  82
METROPOLIS*    CLOUDY    74  69  82 S7        30.07S
$$

ILZ067-068-072-073-078-083-087-091-252000-
SOUTHEAST ILLINOIS

CITY           SKY/WX    TMP DP  RH WIND       PRES   REMARKS
LAWRENCEVILLE  CLOUDY    80  66  62 S14G24    30.07S HX  82
FLORA*         PTSUNNY   77  65  66 S14       30.05S
FAIRFIELD*     CLOUDY    77  66  68 S13       30.05F
HARRISBURG*    CLOUDY    74  68  79 S8        30.08S
ROBINSON*      PTSUNNY   79  65  61 S16G23    30.06F HX  81
CARMI*         CLOUDY    75  63  64 S10       30.07S
$$

ABBREVIATIONS USED IN REMARKS
   TC - TEMPERATURE IN CELSIUS
  WCI - WIND CHILL INDEX
   HX - HEAT INDEX
  VSB - VISIBILITY
$$




USA.gov is the U.S. government's official web portal to all federal, state and local government web resources and services.